Regional Weather Roundup
Issued by NWS

Home | Current Version | Previous Version | Graphics & Text | Print | Product List | Glossary On
Versions: 1 2 3 4 5 6 7 8 9 10 11 12 13 14 15 16 17 18 19 20 21 22 23 24 25 26 27 28 29 30 31 32 33 34 35 36 37 38 39 40 41 42 43 44 45 46 47 48 49 50
000
ASUS43 KIND 210009
RWRIN

WEATHER ROUNDUP FOR INDIANA
NATIONAL WEATHER SERVICE INDIANAPOLIS IN
700 PM EST SAT DEC 20 2014

NOTE: "FAIR" INDICATES FEW OR NO CLOUDS BELOW 12,000 FEET WITH NO
SIGNIFICANT WEATHER AND/OR OBSTRUCTIONS TO VISIBILITY.

* - STATION DOES NOT REPORT WEATHER SUCH AS PRECIPITATION OR FOG.

+ - STATION NOT QUALITY CONTROLLED BY THE NATIONAL WEATHER SERVICE.
    USE DATA WITH CAUTION...ESPECIALLY DEWPOINT AND RELATIVE
    HUMIDITY OBSERVATIONS.

INZ001>003-010>013-019-020-210100-
NORTHWEST INDIANA

CITY           SKY/WX    TMP DP  RH WIND       PRES   REMARKS
GARY /AIRPORT/ CLOUDY    34  23  64 CALM      30.28R
KNOX *+        CLOUDY    31  24  73 CALM      30.28R
LA PORTE +     CLOUDY    32  28  85 CALM      30.28S
6HR MIN TEMP:  32; 6HR MAX TEMP:  35;

MICHIGAN CITY+ CLOUDY    32  23  69 CALM      30.29R
MONTICELLO +   CLOUDY    31  28  87 CALM      30.28R
RENSSELAER +   CLOUDY    32  30  93 SE3       30.28S
VALPARAISO     CLOUDY    31  25  78 CALM      30.27F
6HR MIN TEMP:  31; 6HR MAX TEMP:  32;


$$

LMZ046-743>745-210100-
SOUTHERN LAKE MICHIGAN

STATION/POSITION TIME  TEMP WIND        PRES
                       AIR  DIR/SP/G
                 (UTC) (F)  (DEG/KT/KT) (MB)

$$

INZ004-005-014>016-021>024-210100-
NORTH CENTRAL INDIANA

CITY           SKY/WX    TMP DP  RH WIND       PRES   REMARKS
GOSHEN         CLOUDY    31  28  89 CALM      30.27R FOG
6HR MIN TEMP:  31; 6HR MAX TEMP:  32; 6HR PCP: TRACE;

LOGANSPORT +   CLOUDY    30  28  93 CALM      30.30R
PERU/GRISSOM   CLOUDY    31  31 100 CALM      30.28R
6HR MIN TEMP:  30; 6HR MAX TEMP:  32;

ROCHESTER +    CLOUDY    32  30  93 CALM      30.29R
SOUTH BEND     CLOUDY    33  25  72 SW5       30.28R WCI  29
6HR MIN TEMP:  32; 6HR MAX TEMP:  33;

WARSAW +       CLOUDY    32  27  80 W3        30.28R

$$

INZ006>009-017-018-025>027-210100-
NORTHEAST INDIANA

CITY           SKY/WX    TMP DP  RH WIND       PRES   REMARKS
ANGOLA *+      CLOUDY    28  27  93 CALM      30.26S
AUBURN +       CLOUDY    32  27  80 CALM      30.28R
FORT WAYNE     CLOUDY    32  25  75 W3        30.28S
6HR MIN TEMP:  32; 6HR MAX TEMP:  33; 6HR PCP: TRACE;

HUNTINGTON +   CLOUDY    30  27  86 CALM      30.28R
6HR MIN TEMP:  30; 6HR MAX TEMP:  32;


$$

INZ028-029-035-036-043>045-051>053-210100-
WEST CENTRAL INDIANA

CITY           SKY/WX    TMP DP  RH WIND       PRES   REMARKS
CRAWFORDSVL +  PTCLDY    27  21  80 CALM      30.28
GREENCASTLE +  CLEAR     30  23  74 CALM      30.28R
LAFAYETTE      CLOUDY    30  25  81 SE5       30.29R WCI  25
6HR MIN TEMP:  30; 6HR MAX TEMP:  33;

TERRE HAUTE    CLOUDY    32  27  81 CALM      30.29R
6HR MIN TEMP:  32; 6HR MAX TEMP:  35;


$$

INZ030>032-037>040-046>048-054>057-064-065-210100-
CENTRAL INDIANA

CITY           SKY/WX    TMP DP  RH WIND       PRES   REMARKS
CP ATTERBURY + CLOUDY    32  27  80 MISG      30.30R
FRANKFORT +    CLOUDY    30  27  89 CALM      30.30R
INDIANAPOLIS   MOCLDY    30  23  75 CALM      30.28R
6HR MIN TEMP:  30; 6HR MAX TEMP:  32;

-EAGLE CREEK   PTCLDY    29  23  78 CALM      30.28R
6HR MIN TEMP:  29; 6HR MAX TEMP:  33;

KOKOMO *+      CLOUDY    32  27  80 CALM      30.29R
MARION +       CLOUDY    30  27  88 CALM      30.29R
MT COMFORT *+  CLOUDY    32  21  64 CALM      30.28S
SHELBYVILLE    CLOUDY    33  26  75 CALM      30.28S
6HR MIN TEMP:  32; 6HR MAX TEMP:  34;

ZIONSVILLE +   CLOUDY    31  25  79 CALM      30.28S
6HR MIN TEMP:  31; 6HR MAX TEMP:  32;


$$

INZ033-034-041-042-049-050-058-059-210100-
EAST CENTRAL INDIANA

CITY           SKY/WX    TMP DP  RH WIND       PRES   REMARKS
MUNCIE         CLOUDY    31  23  72 SW3       30.28R
6HR MIN TEMP:  31; 6HR MAX TEMP:  32;


$$

INZ060-061-067>069-081>083-085>088-210100-
SOUTHWEST INDIANA

CITY           SKY/WX    TMP DP  RH WIND       PRES   REMARKS
EVANSVILLE     CLEAR     32  26  78 CALM      30.30R
6HR MIN TEMP:  32; 6HR MAX TEMP:  40;

HUNTINGBURG *+ CLEAR     30  25  80 CALM      30.30R
6HR MIN TEMP:  30; 6HR MAX TEMP:  36;

WASHINGTON +   CLOUDY    31  27  84 CALM      30.29R
6HR MIN TEMP:  31; 6HR MAX TEMP:  34;


$$

INZ062-063-066-070>080-084-089>092-210100-
SOUTH CENTRAL AND SOUTHEAST INDIANA

CITY           SKY/WX    TMP DP  RH WIND       PRES   REMARKS
BLOOMINGTON    CLOUDY    32  26  78 CALM      30.28R
6HR MIN TEMP:  32; 6HR MAX TEMP:  34;


$$




USA.gov is the U.S. government's official web portal to all federal, state and local government web resources and services.